sat.trackr.live / text

‹ back to catalog

STARLINK-35322

NORAD 66332 · 2025-253P

PAYLOAD ACTIVE UNKNOWN

§ Identity

Operator
Country
US
Launch date
2025-11-06
Launch site
AFETR
Launch vehicle
Mass (kg)
RCS (m²)

Purposes: comms

External: N2YO · Heavens-Above · Gunter

§ Orbital elements

Epoch: 2026-09-20T04:44:21.739776Z

Period
94.27 min
Inclination
43.0045°
Eccentricity
0.0001493
Mean motion
15.27589619 rev/d
Perigee alt
482.0 km
Apogee alt
484.0 km
Semi-major
6,861.2 km
B*
3.2837e-4
RAAN
193.8831°
Arg perigee
249.7206°
Mean anomaly
110.3485°
Rev number
4,999

§ Raw data

STARLINK-353221 66332U 25253P   26263.19747384  .00008787  00000+0  32837-3 0  99942 66332  43.0045 193.8831 0001493 249.7206 110.3485 15.27589619 49994

JSON: /api/v1/satellites/66332 · /tle

For live sub-satellite position, see the globe view (requires WebGL).

§ Visibility from observer

Set your observer location to see the next 7 days of passes ≥ 10°. The values pass through the URL so the page stays shareable.

No JS? Fill the form by hand. The geolocation button needs JavaScript.